Regional Weather Roundup
Issued by NWS New Orleans/Baton Rouge, LA

Home | Current Version | Previous Version | Graphics & Text | Print | Product List | Glossary On
Versions: 1 2 3 4 5 6 7 8 9 10 11 12 13 14 15 16 17 18 19 20 21 22 23 24 25 26 27 28 29 30 31 32 33 34 35 36 37 38 39 40 41 42 43 44 45 46 47 48 49 50
346
ASUS44 KLIX 011405
RWRLIX
NEW ORLEANS REGIONAL WEATHER ROUNDUP
NATIONAL WEATHER SERVICE NEW ORLEANS LA
900 AM CDT WED OCT 01 2014

NOTE: "FAIR" INDICATES FEW OR NO CLOUDS BELOW 12,000 FEET WITH NO
      SIGNIFICANT WEATHER AND/OR OBSTRUCTIONS TO VISIBILITY.
      SKY/WX - SKY CONDITION AND SIGNIFICANT WEATHER.
      TMP - AIR TEMPERATURE.     DP    - DEWPOINT TEMPERATURE.
      RH  - RELATIVE HUMIDITY.   PRES  - PRESSURE.
      HI  - HEAT INDEX.          WCI   - WIND CHILL INDEX.

*  THESE STATIONS ARE NOT NWS OR FAA STATIONS AND ARE NOT UNDER
   NWS QUALITY CONTROL.

LAZ038-040-048-061>063-065>067-069-011500-
SOUTHEAST LOUISIANA

CITY           SKY/WX    TMP DP  RH WIND       PRES   REMARKS
N.O. AUDUBON   NOT AVBL
N.O. INTL ARPT PTSUNNY   81  72  74 SE8       29.92R
N.O. LAKEFRONT MOSUNNY   80  72  76 SE9       29.93R
N.O. DOWNTOWN*   N/A     81  70  69 SE7       29.93S
SLIDELL        SUNNY     77  72  84 E3        29.93R
BATON ROUGE    PTSUNNY   76  74  93 E6        29.92R
BOOTHVILLE     PTSUNNY   81  75  82 E7        29.93R
BELLE CHASSE   PTSUNNY   82  72  71 SE10      29.92R
BOGALUSA*        N/A     74  71  89 SE3       29.96R
GALLIANO*      NOT AVBL
NEW ROADS*     PTSUNNY   77  73  88 E10G16    29.91R
GONZALES*        N/A     77  77 100 CALM      29.92R
HAMMOND*       MOSUNNY   79  72  78 E6        29.95R
HOUMA*         PTSUNNY  N/A N/A N/A CALM      29.91R FOG
PORT FOURCHON* CLOUDY    75  72  88 S8        29.95R FOG

$$

MSZ070-080>082-011500-
SOUTHERN MISSISSIPPI

CITY           SKY/WX    TMP DP  RH WIND       PRES   REMARKS
MCCOMB         PTSUNNY   73  71  93 SE5       29.94S
GULFPORT       SUNNY     77  70  79 E7        29.94R
BILOXI         SUNNY     77  69  77 E7        29.94R
PASCAGOULA     SUNNY     76  70  82 E5        29.95R
STENNIS ARPT*  MOSUNNY   75  70  83 CALM      29.94R

$$

COASTAL OBSERVATIONS
LAKE AND NEARSHORE STATIONS

STATION/POSITION TIME  TEMP    WIND        PRES    WAVE
                       AIR SEA DIR/SP/G            HT/PER
                 (UTC) (F)     (DEG/KT/KT) (MB)    (FT/S)
PASCAGOULA       1400   78      50/  5/  8 1013.6
WAVELAND YACHT   1400   76      70/  8/  9 1013.0
GRAND ISLE       1400   80 81  110/  5/ 10 1013.5
SOUTHWEST PASS   1400   82 85  120/ 13/ 16 1013.4
NEW CANAL        1400   80 77  120/  3/  5 1013.6
SHELL BEACH      1400   80 75  120/  9/ 10 1013.2

OFFSHORE STATIONS

STATION/POSITION TIME  TEMP    WIND        PRES    WAVE
                       AIR SEA DIR/SP/G            HT/PER
                 (UTC) (F)     (DEG/KT/KT) (MB)    (FT/S)
64 S DAUPHIN ISL 1313   80 82  130/  8/ 10 1014.0    1/ 4

$$




USA.gov is the U.S. government's official web portal to all federal, state and local government web resources and services.